This is the latest recevied weather packets stored in our database for station/object PD2BVG. If no packets are shown the sender has not sent any weather packets the latest 1 day(s).
| Time | Temp. | Humidity | Pressure | Rain* | Wind** | Luminosity | Snow |
|---|---|---|---|---|---|---|---|
| 1778009974 | 11.67° C | 81% | 1011 hPa | 0 mm | 4.92 m/s, 0° | 0 W/m² | - |
| 1778009913 | 11.67° C | 81% | 1011 hPa | 0 mm | 4.47 m/s, 338° | 0 W/m² | - |
| 1778009853 | 11.67° C | 81% | 1011 hPa | 0 mm | 4.02 m/s, 350° | 0 W/m² | - |
| 1778009792 | 11.67° C | 80% | 1011.1 hPa | 0 mm | 4.02 m/s, 353° | 0 W/m² | - |
| 1778009731 | 11.67° C | 80% | 1011 hPa | 0 mm | 4.02 m/s, 344° | 0 W/m² | - |
| 1778009673 | 11.67° C | 80% | 1011 hPa | 0 mm | 3.58 m/s, 343° | 0 W/m² | - |
| 1778009613 | 11.67° C | 80% | 1011 hPa | 0 mm | 4.02 m/s, 3° | 0 W/m² | - |
| 1778009552 | 11.67° C | 80% | 1011 hPa | 0 mm | 4.92 m/s, 358° | 0 W/m² | - |
| 1778009492 | 11.67° C | 80% | 1011 hPa | 0 mm | 4.92 m/s, 8° | 0 W/m² | - |
| 1778009432 | 11.67° C | 80% | 1011 hPa | 0 mm | 4.92 m/s, 341° | 0 W/m² | - |
| 1778009373 | 11.67° C | 80% | 1010.9 hPa | 0 mm | 4.92 m/s, 319° | 0 W/m² | - |
| 1778009311 | 11.67° C | 80% | 1011 hPa | 0 mm | 4.92 m/s, 337° | 0 W/m² | - |
| 1778009253 | 11.67° C | 80% | 1010.9 hPa | 0 mm | 4.47 m/s, 0° | 0 W/m² | - |
| 1778009192 | 11.67° C | 80% | 1011 hPa | 0 mm | 4.02 m/s, 355° | 0 W/m² | - |
| 1778009132 | 11.67° C | 79% | 1010.9 hPa | 0 mm | 3.58 m/s, 6° | 0 W/m² | - |
| 1778009071 | 11.67° C | 79% | 1010.9 hPa | 0 mm | 3.58 m/s, 334° | 0 W/m² | - |
| 1778009012 | 11.67° C | 79% | 1010.8 hPa | 0 mm | 4.02 m/s, 355° | 0 W/m² | - |
| 1778008953 | 11.67° C | 79% | 1010.9 hPa | 0 mm | 4.92 m/s, 337° | 0 W/m² | - |
| 1778008894 | 11.67° C | 79% | 1010.9 hPa | 0 mm | 4.47 m/s, 0° | 0 W/m² | - |
| 1778008832 | 11.67° C | 80% | 1010.9 hPa | 0 mm | 4.47 m/s, 0° | 0 W/m² | - |
| 1778008774 | 11.67° C | 80% | 1010.9 hPa | 0 mm | 4.92 m/s, 337° | 5 W/m² | - |
| 1778008713 | 11.67° C | 80% | 1010.8 hPa | 0 mm | 4.92 m/s, 331° | 5 W/m² | - |
| 1778008652 | 11.67° C | 80% | 1011 hPa | 0 mm | 4.47 m/s, 324° | 0 W/m² | - |
| 1778008592 | 11.67° C | 80% | 1010.9 hPa | 0 mm | 4.47 m/s, 354° | 0 W/m² | - |
| 1778008531 | 11.67° C | 80% | 1010.8 hPa | 0 mm | 4.02 m/s, 343° | 0 W/m² | - |
* Rain latest hour (hover to see other rain measurements)
** Current wind speed in m/s (hover to see current wind gust speed)